SL-14 R/B, 19791

Orbit data source: Space-Track

SL-14 R/B, 19791 is space debris in LEO originally from a launch on Fri, 10 Feb 1989 UTC launched from the Plesetsk Missile And Space Complex (PKMTR). Debris objects in space refer to the collection of defunct objects orbiting the Earth. Examples of debris include non-operational satellites, rocket bodies, and fragments generated from explosions, collisions, or faulty payload assembly.

Loading next visibility...
Identifier
19791, 1989-009G
Orbit
LEO
Last TLE update
13 hours ago
Origin
Manufacturer
Yuzhnoe
Mission
Spacecraft
Bus & Motor
S5M, Unknown motor
Mass
1,600 kg wet, 1,600 kg dry
Launch date (UTC)
1989-02-10 (36 years ago)
Launch vehicle
Unknown
Launch site
Plesetsk Missile And Space Complex (PKMTR)
Object type
Payload
Rocket body
Debris
Shape & HBR
Cyl, 2.7 m
Radar Cross Section
7.351 m², Large (>1 m²)

Expand to show TLE details & history

TLE from 13 hours ago
0 SL-14 R/B
1 19791U 89009G   25186.51556723  .00000021  00000-0  66386-4 0  9995
2 19791  82.6149 349.2977 0034599 357.8957  69.2978 12.54878356667070
Epoch: 2025-07-05T12:22Z
TLE epoch observation values (Epoch: 2025-07-05T12:22:25.008Z)
Latitude
66.51817°
Longitude
-102.78874°
Altitude
1,446.143 km
Speed
7.149 km/s
True Right ascension
00h 26m 16s
True Declination
66° 24' 12"
Sunlit
Object was in daylight at epoch
Visualization orbit readout
Latitude
-77.24557°
Longitude
-155.1237°
Altitude
1,465.287 km
Speed
7.133 km/s
Apparent Right ascension
23h 57m 46s
Apparent Declination
-62° 59' 11"
Sunlit
Object is in daylight
Visualization observer readout
Local Sidereal Time
12:56:02
Azimuth
164.107° S
Elevation
-65.343°
Doppler factor
1
Orbital elements
Apogee altitude
1,468.541 km
Perigee altitude
1,414.431 km
Semi-major axis
7,819.623 km
Eccentricity
0.00346
Inclination
82.6149°
RAAN
349.2977°
Arg. of periapsis
357.8957°
True anomaly
Unknown
Mean anomaly
69.2978°
Eccentric anomaly
Unknown
Mean motion
3.13881 °/min
Orbital period
114.69 mins
BSTAR
0.000066386
Loading maneuver chart data...
Loading SW <> Apogee altitude chart data...
Loading historical data...
Loading historical data...
Loading historical data...
Loading historical data...
Loading historical data...
Loading historical data...
Loading historical data...

SL-14 R/B Visibility forecast

Observer location: undefined°, undefined°

Span
Click to sort rows by Start time (UTC) header in descending order
Start Az.
Max El. time (UTC)
Max El. Az.
Max El.
End time (UTC)
End Az.
16 mins2025-07-06 11:03:25.765Z168.166° S2025-07-06 11:11:25.765Z88.724° E41.084°2025-07-06 11:19:25.765Z14.736° NNE
12 mins2025-07-06 13:02:25.765Z244.326° WSW2025-07-06 13:07:25.765Z289.828° WNW25.02°2025-07-06 13:14:25.765Z347.03° N
12 mins2025-07-06 21:10:25.765Z21.881° NNE2025-07-06 21:15:25.765Z64.021° ENE23.635°2025-07-06 21:22:25.765Z120.457° SE
15 mins2025-07-06 23:05:25.765Z344.774° N2025-07-06 23:12:25.765Z256.094° W42.505°2025-07-06 23:20:25.765Z188.03° SSW
|